Location: Jetmore Motorplex
(37.9889°N, 99.8876°W)
Time: 06:47:17
(UTC+00:00)

STARLINK-37 - Pass Details

Date: 17 February 2020
Orbit: 529 x 530 km, 53.0° (Epoch: 31 March)

Event Time Altitude Azimuth Distance (km) Brightness Sun altitude
Rises 02:02:22 0° 232° (SW) 2,654 7.9 -21.0°
Reaches altitude 10° 02:04:34 10° 234° (SW) 1,768 6.9 -21.4°
Maximum altitude 02:08:34 73° 319° (NW) 558 3.6 -22.2°
Enters shadow 02:09:01 64° 8° (N) 588 3.6 -22.3°
